Wind_Speed
34 36 37 37 38 38 37 35 35 34 35 38 41 41 40 38 36 35 36 39 39 36 33 34 36 37 36 35 34 33 31 30 30 30 29 29 30 30 30 31 31 32 32 32 31 30 29 27 26 25 24 23 22 22 21 21 21 21 21 21 21 21 22 22 22 22 22 22 22
35 37 37 37 37 36 35 33 33 33 34 35 37 37 36 34 32 32 35 38 40 38 34 35 36 37 37 37 36 34 33 32 32 31 30 30 30 30 30 30 31 31 31 31 30 29 28 27 25 24 23 22 21 21 20 20 20 20 20 20 21 21 21 22 22 22 23 23 23
36 36 37 37 36 35 33 32 33 32 31 31 32 31 30 29 29 30 33 37 40 39 36 36 36 36 37 37 37 36 35 34 33 32 32 31 30 30 30 30 30 29 29 29 29 28 27 26 24 23 22 21 21 20 20 19 20 19 19 20 20 21 21 22 22 22 23 23 24
35 36 36 36 36 35 34 34 33 31 29 28 28 27 26 26 26 28 31 35 37 38 38 36 36 36 36 37 37 36 36 35 34 34 33 32 31 31 30 30 29 28 28 27 27 26 25 24 23 22 21 21 20 20 20 20 20 20 20 20 20 20 21 21 22 22 22 23 24
34 35 36 36 36 36 36 36 35 32 29 26 26 25 25 25 26 27 30 33 36 39 40 37 35 35 35 36 37 37 36 36 35 35 34 33 32 32 31 29 28 27 26 26 25 25 24 23 22 21 21 20 20 20 20 20 20 20 20 20 20 20 21 21 21 22 22 23 23
34 35 36 37 37 37 38 39 38 35 31 27 26 26 26 25 26 28 31 34 38 40 39 36 34 34 34 36 37 37 37 37 36 36 35 35 34 32 31 29 27 26 25 24 24 24 23 23 22 22 21 21 21 22 22 22 21 21 21 21 21 21 21 21 22 22 22 23 23
34 34 36 37 38 39 40 41 40 38 34 30 29 28 26 25 26 28 32 36 38 37 36 34 33 33 34 36 37 37 38 38 38 37 36 36 34 32 30 28 26 25 24 24 24 23 23 23 23 22 23 23 23 23 23 23 23 23 23 23 23 23 23 23 23 23 23 24 24
34 35 36 38 39 40 41 42 41 39 36 32 31 29 27 24 25 27 31 33 34 33 32 31 31 32 33 35 36 37 38 39 39 38 37 36 34 31 29 27 25 24 24 23 23 23 23 23 23 24 24 25 25 25 25 25 25 25 25 25 25 25 24 24 25 25 25 25 26
33 34 36 38 39 40 41 42 41 39 35 32 32 30 27 23 23 25 28 30 30 30 30 29 30 31 32 34 35 37 38 39 39 38 36 34 32 30 28 26 25 24 23 23 23 23 24 24 25 26 26 27 27 27 27 27 27 27 26 26 26 26 26 26 26 27 27 27 27
32 33 35 37 39 39 40 41 41 38 34 32 32 31 27 22 22 24 25 27 28 28 28 28 29 30 32 33 35 37 38 38 37 35 34 32 30 28 26 25 24 23 23 23 24 25 25 26 27 28 28 29 29 29 28 28 28 28 28 28 27 27 28 28 28 28 29 29 29
30 31 33 36 38 38 39 40 40 38 34 32 32 30 26 21 21 23 24 25 26 27 27 28 29 30 31 32 34 34 34 33 32 31 30 29 27 26 25 24 24 24 24 25 25 26 28 29 29 30 30 30 30 30 30 30 29 29 29 29 29 29 29 29 30 30 30 30 30
28 29 31 34 37 38 38 39 39 37 33 32 32 29 25 21 21 23 24 25 26 27 27 27 28 29 29 30 30 30 29 28 28 29 28 27 26 25 25 25 25 25 26 26 27 28 30 31 31 31 31 31 31 31 31 31 31 30 30 30 30 30 30 30 31 31 31 31 31
26 27 29 32 35 37 38 39 38 35 33 32 30 27 23 21 22 23 24 25 26 27 27 27 27 27 27 28 28 28 28 28 29 29 28 27 26 26 26 26 26 27 27 28 29 30 31 32 32 32 32 32 32 32 32 32 31 31 31 31 31 31 31 31 31 31 31 31 31
25 27 29 32 35 37 38 37 36 34 32 30 28 25 22 21 23 24 25 25 26 27 27 27 27 27 27 27 28 29 30 30 30 29 28 27 26 26 27 27 28 28 29 29 30 31 32 32 32 32 32 32 32 32 32 32 32 32 32 32 32 32 32 32 32 32 31 30 30
26 27 30 33 36 37 36 34 32 31 30 28 26 24 22 22 24 25 25 25 26 27 28 28 28 28 27 27 29 30 30 29 28 27 27 26 27 27 28 28 29 29 30 30 31 32 32 33 32 32 32 32 32 32 33 33 33 33 33 33 33 33 33 33 32 32 31 31 30
26 29 32 34 36 35 32 31 29 28 27 27 25 24 23 23 24 24 24 25 27 29 29 30 29 28 27 29 30 30 28 25 24 24 26 27 27 28 29 29 30 31 31 32 32 32 33 33 33 33 33 33 33 33 33 34 34 34 34 34 33 33 33 32 32 31 31 31 31
26 29 32 35 34 32 29 27 26 26 26 26 25 25 24 24 24 25 26 27 29 30 30 29 28 28 29 30 30 27 23 21 22 24 26 27 28 28 29 30 31 31 32 33 33 34 34 34 34 34 34 34 34 34 34 34 34 34 34 34 33 33 32 32 32 31 31 31 31
26 29 31 33 32 29 27 26 25 25 25 25 25 25 25 25 25 26 28 28 29 29 29 29 29 29 30 30 27 24 21 21 23 24 25 25 26 26 27 28 29 30 31 32 33 34 34 34 34 35 35 35 35 35 35 34 33 33 33 33 33 32 32 32 32 31 31 31 30
27 29 31 31 30 28 27 26 25 25 26 26 26 26 25 25 26 27 29 29 29 29 29 29 30 30 29 27 24 23 23 24 25 24 23 23 23 24 25 26 27 28 29 30 31 32 33 33 33 34 34 35 35 35 34 34 33 32 32 32 32 32 32 32 32 31 31 30 30
26 28 29 29 28 27 26 26 26 26 26 26 27 27 26 27 27 29 30 30 30 30 30 30 30 29 27 24 23 24 26 27 26 25 23 23 23 24 24 25 26 26 27 28 29 30 30 31 31 32 32 33 33 33 33 33 32 32 32 32 32 32 32 32 32 31 31 30 30
26 27 28 28 27 27 27 28 28 28 28 28 28 28 28 28 29 31 31 32 31 31 30 30 29 27 25 25 25 27 28 29 28 27 26 25 25 25 26 26 26 26 27 27 28 28 29 29 30 30 31 31 32 32 32 32 32 31 31 31 31 32 32 32 32 32 32 31 31
27 28 28 28 28 29 29 29 29 29 29 29 30 30 30 31 32 34 34 33 33 32 31 30 28 27 26 27 27 28 28 28 29 29 28 27 27 27 27 26 26 26 27 27 27 27 28 28 28 29 29 30 30 31 31 31 31 31 31 31 31 31 32 32 32 32 32 32 32
28 29 29 30 30 30 30 30 30 30 31 31 32 32 32 33 34 34 35 34 33 32 31 29 28 27 27 27 27 28 27 28 28 28 29 28 28 28 27 27 27 27 27 27 27 27 27 27 27 28 28 29 29 29 30 30 30 30 30 30 30 31 31 32 32 33 33 32 32
28 29 30 30 30 30 30 30 30 31 32 32 32 32 32 31 32 32 32 32 31 30 29 28 27 27 27 27 27 27 27 27 27 28 28 28 28 28 28 27 27 27 27 26 26 26 26 26 26 26 27 27 27 28 28 29 29 29 29 29 30 30 31 32 32 32 32 32 31
28 29 30 30 30 30 30 30 30 30 31 31 31 30 30 29 29 28 28 27 27 26 26 26 27 28 28 28 28 28 27 27 27 28 28 28 28 27 27 27 27 26 26 26 25 25 25 25 25 25 25 25 26 27 28 28 28 29 29 29 30 30 31 32 32 32 31 30 29
28 29 29 29 29 29 29 29 29 29 29 29 29 29 28 28 27 27 26 25 25 25 25 26 27 28 29 29 29 28 28 28 28 28 27 27 26 26 26 26 26 25 25 25 25 26 26 25 25 25 25 25 25 26 27 28 28 29 29 30 30 31 31 31 30 30 29 28 28
28 28 27 27 28 28 28 28 28 28 28 28 28 27 27 27 26 26 26 25 25 25 25 26 27 27 28 29 29 29 29 28 28 28 27 26 25 25 25 25 24 24 24 25 26 26 26 27 26 26 26 26 26 26 27 27 28 29 30 30 30 30 29 29 28 27 27 28 28
27 26 26 26 27 27 27 27 27 28 27 27 27 26 26 26 26 25 25 25 25 25 25 25 26 26 27 27 28 28 28 28 28 27 26 25 24 24 24 23 23 23 24 25 26 27 28 28 29 28 28 28 28 28 28 28 29 29 29 29 28 27 27 26 26 27 28 28 28
26 26 26 26 26 26 27 27 27 27 27 27 26 26 26 25 25 25 25 25 25 25 25 25 25 25 26 26 27 27 27 27 27 26 26 25 24 23 22 22 21 21 21 23 26 27 29 29 30 29 29 29 29 29 29 29 29 28 28 27 26 26 26 26 27 27 27 27 26
26 26 26 26 26 26 27 27 27 27 27 26 26 26 26 26 26 25 25 24 24 25 25 25 25 25 25 26 26 26 25 25 25 25 24 24 23 22 21 20 19 19 20 22 24 25 26 27 27 27 27 26 27 27 28 28 28 27 26 26 26 27 28 28 28 27 26 26 26
26 26 26 26 26 27 27 27 27 27 27 27 27 27 27 27 27 26 25 24 24 24 24 24 24 24 24 24 24 24 24 24 24 24 23 23 23 22 21 21 20 20 20 22 23 23 23 23 23 23 23 23 24 26 27 27 27 27 27 28 28 29 29 28 27 26 25 26 27
26 26 26 26 26 27 27 27 27 27 27 27 27 27 28 28 28 27 26 24 23 22 23 23 23 23 23 23 23 22 22 22 22 23 23 23 22 22 23 24 23 23 23 23 23 23 22 22 21 21 21 22 23 25 26 27 27 28 29 29 29 29 28 26 25 24 24 26 27
26 26 27 27 26 27 27 27 27 27 27 27 27 27 28 28 28 28 26 25 23 22 22 22 22 22 22 21 20 19 18 18 18 18 19 19 21 23 25 26 26 26 25 25 24 24 24 23 23 22 22 22 23 25 26 27 27 28 28 28 28 27 25 24 24 24 24 26 26
27 27 27 27 27 26 26 27 27 27 27 27 27 27 27 27 27 28 27 26 24 22 20 19 20 20 19 18 17 17 16 16 16 17 18 19 22 24 26 27 27 27 27 26 26 25 25 26 26 25 24 24 25 25 26 26 27 27 27 27 26 25 24 23 23 24 24 25 25
27 27 27 27 27 26 26 26 26 26 26 26 26 26 26 26 27 27 28 27 25 23 20 19 19 19 18 18 18 20 21 21 22 23 24 25 26 27 27 27 28 27 27 27 27 27 28 28 28 28 27 27 26 26 26 26 26 26 26 25 24 24 23 24 24 24 24 25 25
27 27 27 27 27 26 26 25 25 25 26 26 26 26 26 26 26 27 27 27 25 23 21 20 20 21 21 21 21 22 23 24 25 26 26 27 28 28 28 28 28 28 28 28 28 29 29 30 30 29 29 28 27 27 26 26 26 26 25 24 24 24 24 24 24 24 24 25 24
27 27 27 27 27 26 25 25 25 25 25 25 25 25 25 25 25 25 25 25 24 23 22 22 21 22 23 23 23 24 25 26 27 28 28 29 29 29 29 29 29 29 29 30 30 30 30 29 29 29 28 28 28 27 27 27 26 25 24 24 24 25 25 24 24 24 23 23 23
27 27 27 28 27 27 26 25 25 25 25 25 25 25 25 24 24 23 23 23 24 24 25 24 23 23 24 25 26 27 28 29 29 30 30 31 31 31 31 31 31 31 31 31 30 30 29 28 27 27 27 27 27 27 27 26 25 24 24 24 25 24 23 23 22 22 21 21 21
28 27 28 28 28 28 27 26 26 25 25 24 24 24 24 23 22 22 22 23 25 26 27 26 26 26 26 28 29 30 30 31 31 32 32 32 33 33 33 32 32 32 31 30 29 28 27 26 26 25 26 26 26 26 26 25 24 23 23 23 23 22 22 21 20 20 20 20 19
29 28 28 28 29 28 28 28 27 26 25 24 24 24 24 24 24 24 24 25 26 27 28 28 28 29 30 30 31 31 32 32 32 32 31 32 33 33 33 32 31 30 29 27 26 25 24 24 25 25 25 25 25 24 23 22 21 21 21 21 21 20 20 20 19 18 18 17 17
29 29 29 29 29 29 29 28 28 26 25 24 23 24 25 26 26 26 26 26 26 27 29 30 30 31 32 32 32 32 32 31 31 31 31 31 32 32 31 30 29 28 26 25 24 24 24 25 25 25 24 23 22 21 21 20 19 20 20 20 20 19 18 18 17 16 14 13 12
Wind_Direction
169 169 169 170 170 170 169 169 169 170 170 170 168 167 166 165 165 165 166 166 167 167 169 171 172 172 171 171 172 174 175 175 177 180 186 192 196 198 199 200 201 203 205 207 209 211 212 214 216 218 220 222 224 225 227 228 230 232 234 236 238 239 240 240 238 236 235 236 238
170 169 168 167 166 166 166 167 168 168 169 169 169 168 168 167 167 167 168 169 170 172 174 175 176 175 174 174 176 178 179 179 180 183 187 192 196 198 199 201 202 204 206 208 210 212 213 215 216 218 221 223 225 227 229 230 232 234 236 239 240 242 242 243 243 242 240 239 239
170 168 166 165 164 164 164 165 166 166 167 168 169 169 169 169 169 169 169 171 173 176 179 180 180 180 179 179 180 182 183 183 184 186 189 193 196 199 200 202 203 205 207 209 211 212 214 215 218 220 223 225 228 230 232 233 235 237 239 241 242 243 245 246 247 246 245 243 242
169 168 166 165 164 164 164 164 164 163 164 166 167 167 168 169 170 170 170 171 174 180 184 185 184 184 183 183 184 186 187 188 188 190 192 195 197 200 202 204 205 206 208 209 211 213 215 217 219 222 225 229 231 234 236 237 238 240 242 243 245 246 248 249 250 250 250 249 248
170 170 169 167 166 166 166 165 163 161 161 162 163 165 167 168 169 170 170 172 177 184 189 190 188 187 187 187 187 188 190 191 192 194 195 197 199 202 205 206 207 208 209 210 212 214 216 218 221 224 228 231 235 237 239 240 242 244 245 246 248 249 250 252 253 254 255 255 255
172 171 170 169 169 169 168 166 164 163 162 161 162 164 166 167 168 169 171 175 182 188 192 192 191 190 189 189 189 190 192 193 195 196 198 200 202 204 206 208 209 210 211 212 214 216 218 221 224 227 230 233 236 239 240 242 244 247 249 251 251 252 254 255 257 258 259 260 260
173 172 171 171 172 172 171 170 168 167 165 162 162 163 164 166 168 170 174 180 185 189 191 192 192 191 190 190 190 191 193 195 196 198 200 202 204 206 208 210 211 212 214 215 217 219 221 224 226 229 232 235 237 240 241 244 247 249 251 253 254 255 257 259 260 261 262 263 263
174 174 174 175 176 176 175 174 173 171 168 165 162 160 160 163 167 172 178 183 186 188 190 190 191 192 192 190 190 192 194 196 198 200 202 204 206 208 210 211 213 215 216 218 220 222 224 226 228 231 233 235 238 240 243 245 248 250 252 254 256 258 260 261 262 264 265 265 265
176 177 178 179 180 180 179 178 177 175 171 167 162 159 158 163 167 173 178 182 185 187 187 188 191 193 192 190 189 192 195 197 199 201 203 206 208 210 212 214 215 217 220 222 224 226 227 228 230 232 234 236 239 241 243 246 249 251 253 255 258 260 262 263 264 265 266 266 265
179 181 182 182 183 184 183 182 180 177 173 167 163 160 159 164 169 173 177 181 184 184 185 187 190 192 192 190 190 192 195 197 199 202 204 207 209 211 213 215 217 220 222 225 227 228 229 230 232 233 235 237 240 242 245 248 250 253 255 257 259 261 263 264 265 266 266 266 265
183 184 185 186 186 186 186 184 181 178 172 167 164 162 162 167 172 175 178 181 182 182 183 187 190 191 191 191 191 193 195 197 200 203 205 207 209 211 214 216 219 221 223 226 228 230 232 233 234 235 236 239 241 244 247 249 252 254 256 258 260 261 262 264 265 266 266 265 265
184 186 187 188 188 188 187 184 181 177 171 166 164 164 166 171 175 177 179 181 182 182 183 187 189 191 190 190 190 191 194 197 202 205 207 208 209 212 215 218 220 222 224 226 229 232 234 235 236 238 239 241 244 246 249 251 253 255 257 258 260 261 261 262 264 265 265 265 264
183 184 186 188 189 188 186 183 179 174 168 164 164 167 171 175 177 179 181 184 184 183 183 185 187 187 187 187 188 191 195 201 206 208 208 209 211 213 216 219 222 223 225 227 230 233 236 239 240 242 243 245 247 249 251 253 254 256 257 259 260 261 262 263 263 263 263 262 262
181 183 185 187 188 186 183 178 174 169 165 163 165 169 173 175 178 181 184 185 184 181 179 180 182 183 184 186 188 193 199 206 210 211 211 212 214 216 219 221 223 225 226 228 231 234 238 241 244 245 246 248 249 251 252 254 256 257 259 260 261 262 263 264 264 262 260 258 258
180 182 184 185 184 181 176 171 168 165 164 165 168 170 171 172 177 181 183 182 180 177 176 177 180 183 184 187 191 198 206 212 214 214 214 215 217 219 221 223 225 226 228 229 232 235 238 241 244 245 247 248 250 251 253 255 257 259 260 261 262 263 263 264 263 261 259 257 257
178 181 182 181 178 173 168 165 165 166 168 169 170 171 170 170 174 177 177 176 174 174 176 179 181 183 185 190 198 206 213 215 215 215 216 218 220 222 224 225 227 228 229 231 232 235 237 240 242 244 245 247 249 251 253 256 258 260 261 263 263 263 263 262 261 260 259 259 258
174 177 177 175 171 166 164 165 168 170 172 173 172 172 171 172 174 175 174 173 174 175 178 181 182 184 189 197 205 211 214 213 214 216 218 221 223 225 226 228 229 230 231 232 233 234 236 239 241 243 245 247 249 251 253 255 257 260 262 263 264 264 263 262 261 259 259 259 259
170 171 171 169 166 165 166 169 171 173 174 175 174 174 173 174 174 174 174 174 175 177 179 181 183 188 196 205 209 210 209 209 212 216 219 222 224 226 228 230 231 233 233 234 234 235 236 238 240 243 245 247 249 251 253 254 256 258 260 262 263 263 263 263 261 260 258 257 257
167 167 167 166 166 167 169 172 173 173 174 175 175 175 175 175 174 174 174 175 177 178 180 182 187 196 204 210 211 210 209 210 211 214 218 221 224 226 229 231 232 233 234 234 235 236 237 238 239 242 245 248 250 252 253 254 254 255 256 258 259 261 262 262 262 260 258 256 255
166 166 166 167 167 169 171 172 174 174 175 175 175 175 175 175 174 175 176 177 179 181 183 187 195 204 211 215 216 215 215 214 214 215 218 221 224 226 228 230 232 233 233 234 234 235 236 236 238 240 243 246 249 251 253 253 253 252 252 253 254 256 258 260 260 259 258 256 255
170 169 169 169 170 171 172 174 174 175 175 175 175 175 175 175 176 177 179 180 182 184 189 195 203 209 214 217 218 218 219 220 219 220 221 223 225 227 229 230 231 231 232 232 233 233 234 234 235 237 240 242 245 248 250 251 252 251 250 250 251 252 254 256 257 258 258 258 258
173 173 173 172 173 173 174 174 175 175 175 175 175 175 176 178 179 180 182 184 186 190 196 202 207 211 213 215 217 218 220 222 223 224 225 225 226 227 229 229 229 230 230 231 232 232 233 233 234 235 237 239 242 245 247 249 250 250 250 249 249 250 251 253 255 257 259 261 262
175 175 174 174 175 175 175 175 175 175 175 176 177 178 179 181 183 185 187 190 193 198 203 206 207 208 211 213 215 217 220 222 225 226 227 227 227 228 228 228 228 228 229 230 231 232 233 234 235 235 236 238 240 242 245 247 248 249 249 249 250 250 252 254 256 259 261 264 268
176 175 175 175 176 176 176 176 176 177 178 179 180 181 183 186 188 191 194 198 202 206 207 207 207 208 210 213 216 218 220 222 225 226 227 227 227 227 227 227 228 228 229 230 231 232 234 234 235 236 237 238 239 240 242 244 246 247 248 250 251 252 254 256 259 262 265 269 273
176 176 175 176 177 178 179 179 179 180 180 182 183 185 187 190 193 196 199 202 206 208 209 209 210 212 214 217 219 220 221 222 224 225 226 226 226 225 226 226 227 228 229 230 231 232 233 234 234 235 236 237 237 238 239 241 243 245 248 250 252 254 257 259 263 267 271 275 278
176 175 176 177 179 181 182 183 183 183 184 185 187 189 192 194 196 198 199 201 204 207 210 213 215 217 220 222 222 222 222 222 222 223 225 225 226 226 226 226 227 228 229 230 230 230 231 231 232 233 234 235 236 237 238 240 243 246 248 251 254 257 260 263 268 272 276 278 278
176 176 177 178 181 183 185 187 187 188 188 189 191 193 195 196 197 198 200 201 203 207 211 214 217 220 222 224 224 223 221 220 221 222 224 226 227 227 226 226 226 226 227 228 228 228 229 229 230 232 233 235 237 239 241 243 246 249 252 255 258 261 264 267 271 274 275 275 273
178 178 179 181 183 185 187 189 190 191 192 193 194 195 196 197 198 199 200 202 204 207 210 213 216 218 221 222 222 221 219 219 220 222 223 225 227 228 227 226 225 225 226 227 228 229 230 231 232 234 236 238 240 243 246 249 252 254 257 259 261 263 266 268 269 270 269 269 269
181 182 183 184 185 187 189 190 192 193 194 195 196 196 196 197 198 200 201 203 204 206 208 210 213 215 216 218 218 218 217 217 219 220 222 224 225 226 226 225 224 225 227 229 231 233 234 235 237 238 241 243 245 248 250 253 255 257 258 259 260 261 262 262 263 263 263 264 266
184 185 186 187 188 189 190 191 192 194 195 196 196 197 197 198 199 201 202 203 205 207 208 210 211 213 214 215 216 215 215 216 217 219 220 221 222 222 222 221 220 222 225 229 233 236 238 240 241 242 244 246 247 249 250 251 253 253 254 254 255 255 255 256 256 257 259 262 266
187 187 188 189 189 190 191 192 193 194 195 196 197 198 199 200 200 201 202 204 206 208 210 211 211 213 214 215 215 214 214 214 215 216 217 219 219 219 218 217 217 221 225 229 231 233 236 239 242 244 245 245 245 245 246 246 247 248 248 249 250 251 252 253 254 257 260 265 269
189 189 189 190 191 191 192 193 194 195 196 197 199 200 201 202 202 202 202 203 205 208 210 212 212 213 213 214 213 213 213 213 213 215 216 217 218 220 221 221 220 222 224 227 229 230 231 233 235 237 239 239 238 238 239 240 242 243 245 247 248 250 252 254 257 261 266 271 274
190 190 191 191 192 192 193 194 195 196 196 198 199 200 201 203 204 203 203 202 203 206 209 211 212 213 213 212 211 210 212 214 216 219 220 221 221 221 222 222 222 223 224 225 227 229 230 231 231 230 229 229 230 231 233 236 239 241 244 246 248 251 254 257 262 267 271 275 276
191 191 192 193 193 193 194 194 195 196 197 198 199 200 201 203 203 204 203 202 202 203 206 208 210 210 209 207 202 199 198 201 204 208 210 212 215 218 220 221 222 222 224 225 226 229 231 233 232 231 229 228 229 231 233 236 239 242 244 247 249 253 257 261 265 268 271 272 272
191 192 193 193 194 194 195 195 196 197 198 198 199 200 201 202 204 204 204 203 202 202 202 203 202 198 195 196 197 198 198 199 202 206 208 210 213 216 218 220 221 222 223 225 226 228 231 233 233 233 233 233 234 236 237 239 242 244 247 249 253 258 262 265 267 268 268 268 267
192 192 193 193 194 194 195 196 196 197 198 198 199 200 201 203 205 205 205 204 202 201 201 200 197 194 194 194 197 200 202 204 207 210 212 213 214 216 217 219 221 222 224 225 226 227 229 231 232 234 235 236 238 240 241 243 245 247 250 253 258 262 265 266 267 267 266 266 265
192 193 193 194 194 194 194 195 196 197 198 199 200 200 201 203 204 204 203 201 199 199 200 200 198 198 199 200 202 203 205 206 208 211 213 214 214 215 217 219 220 222 223 224 224 224 225 227 229 231 234 237 239 241 243 244 246 249 252 257 260 263 264 265 265 266 266 266 266
193 194 194 195 194 194 194 195 196 197 198 199 200 201 202 202 201 200 198 196 195 198 201 201 200 201 203 206 208 209 209 210 210 211 212 214 215 215 217 218 219 220 221 220 220 220 221 223 226 230 234 237 239 241 243 244 246 250 253 256 259 260 262 263 264 265 266 266 267
195 196 197 197 197 196 196 196 196 197 198 199 200 200 199 196 193 192 191 191 194 198 201 203 203 204 207 210 212 213 214 214 215 214 213 213 215 216 217 218 218 218 218 216 216 216 218 222 226 230 234 237 240 242 244 245 248 251 254 256 257 258 259 261 263 265 265 265 265
198 199 200 200 200 199 198 197 197 197 197 198 198 197 194 191 188 187 187 190 195 199 201 203 205 208 211 213 214 216 216 217 217 216 214 214 215 216 217 217 217 217 216 215 215 218 222 228 233 236 238 239 242 244 247 249 252 255 256 256 256 256 257 259 261 262 262 262 262
200 201 201 202 202 201 200 198 197 197 197 196 194 194 193 193 192 191 193 195 197 200 202 204 207 210 212 214 215 217 218 218 218 217 216 216 216 217 217 218 219 219 220 221 221 225 231 237 241 242 241 242 245 249 252 255 257 258 257 255 254 254 255 257 259 259 259 261 265
Height
1419 1421 1423 1424 1426 1428 1430 1432 1434 1437 1438 1440 1441 1443 1444 1446 1447 1449 1451 1452 1454 1458 1462 1465 1468 1470 1473 1474 1476 1478 1480 1482 1484 1486 1487 1489 1491 1493 1494 1496 1498 1500 1501 1503 1504 1506 1507 1508 1509 1511 1512 1513 1514 1516 1517 1518 1519 1519 1520 1521 1522 1523 1523 1524 1525 1525 1526 1526 1527
1419 1421 1423 1424 1426 1428 1430 1433 1435 1437 1439 1440 1442 1443 1444 1446 1447 1449 1451 1453 1455 1459 1462 1465 1468 1470 1472 1474 1476 1477 1479 1481 1483 1485 1487 1488 1490 1492 1494 1496 1498 1499 1501 1502 1503 1505 1506 1508 1509 1510 1511 1513 1513 1515 1516 1517 1518 1518 1519 1520 1521 1521 1522 1523 1523 1524 1524 1525 1525
1420 1421 1423 1425 1426 1428 1430 1433 1435 1437 1439 1441 1443 1443 1445 1446 1448 1450 1451 1453 1456 1460 1463 1466 1468 1470 1472 1473 1475 1477 1478 1480 1482 1484 1486 1488 1490 1492 1493 1495 1497 1498 1500 1502 1503 1504 1506 1507 1508 1509 1510 1512 1513 1514 1515 1516 1517 1517 1518 1519 1519 1520 1521 1521 1522 1522 1523 1523 1524
1420 1422 1423 1425 1427 1428 1430 1432 1435 1437 1439 1441 1443 1444 1446 1447 1449 1450 1452 1454 1458 1461 1463 1465 1467 1469 1471 1473 1474 1476 1478 1480 1482 1484 1486 1488 1489 1491 1493 1494 1496 1498 1499 1501 1503 1504 1505 1507 1508 1509 1510 1511 1512 1513 1514 1515 1516 1516 1517 1518 1518 1518 1519 1519 1520 1521 1521 1522 1523
1421 1422 1423 1425 1427 1428 1430 1433 1434 1437 1439 1441 1443 1445 1446 1448 1450 1451 1453 1456 1459 1461 1463 1465 1467 1468 1470 1472 1474 1476 1478 1480 1482 1483 1485 1488 1489 1491 1492 1494 1496 1497 1499 1500 1502 1503 1505 1506 1507 1508 1509 1510 1511 1512 1513 1514 1514 1515 1516 1516 1517 1517 1518 1518 1518 1519 1520 1520 1521
1420 1422 1424 1425 1427 1429 1430 1432 1434 1436 1438 1440 1442 1444 1446 1448 1450 1452 1454 1457 1459 1460 1462 1464 1466 1468 1469 1471 1473 1475 1477 1479 1481 1483 1485 1487 1488 1490 1492 1493 1495 1497 1498 1500 1501 1503 1504 1505 1506 1507 1508 1509 1510 1511 1512 1513 1513 1514 1514 1515 1515 1516 1516 1517 1517 1518 1518 1518 1519
1420 1422 1424 1425 1427 1428 1430 1432 1433 1435 1437 1439 1441 1443 1445 1448 1450 1452 1454 1456 1458 1460 1462 1464 1465 1467 1468 1470 1472 1474 1477 1478 1481 1483 1484 1486 1488 1489 1491 1493 1494 1496 1498 1499 1501 1502 1503 1504 1505 1506 1508 1508 1509 1510 1511 1511 1512 1512 1513 1513 1513 1514 1514 1515 1516 1516 1517 1517 1518
1420 1422 1423 1425 1427 1428 1430 1431 1433 1434 1436 1438 1440 1442 1444 1447 1450 1452 1454 1456 1458 1459 1461 1463 1464 1466 1467 1469 1472 1474 1476 1478 1480 1482 1483 1486 1487 1489 1491 1492 1494 1495 1497 1498 1500 1501 1502 1503 1504 1505 1506 1507 1508 1508 1509 1510 1510 1511 1511 1512 1512 1512 1513 1513 1514 1514 1515 1515 1516
1421 1422 1424 1426 1427 1429 1430 1431 1433 1434 1436 1438 1440 1441 1444 1448 1451 1453 1454 1455 1457 1458 1460 1462 1463 1465 1467 1469 1471 1473 1475 1477 1479 1481 1483 1485 1487 1489 1490 1492 1493 1495 1496 1497 1498 1500 1501 1502 1503 1504 1505 1506 1506 1507 1508 1508 1509 1509 1509 1510 1510 1511 1511 1512 1512 1513 1513 1513 1514
1421 1423 1424 1426 1428 1429 1431 1432 1433 1435 1437 1438 1440 1442 1444 1448 1451 1453 1454 1455 1457 1458 1460 1461 1463 1464 1466 1468 1471 1473 1475 1477 1479 1481 1483 1485 1487 1488 1490 1491 1493 1494 1495 1496 1498 1499 1500 1501 1502 1503 1503 1504 1505 1505 1506 1507 1507 1508 1508 1508 1509 1509 1509 1510 1510 1511 1511 1512 1512
1421 1422 1424 1426 1428 1429 1431 1432 1434 1435 1437 1439 1441 1443 1445 1448 1451 1453 1453 1455 1457 1458 1460 1461 1462 1464 1466 1468 1470 1472 1474 1477 1479 1481 1483 1485 1486 1488 1489 1490 1492 1493 1494 1495 1496 1498 1498 1499 1500 1501 1502 1502 1503 1504 1504 1505 1506 1506 1506 1507 1507 1508 1508 1508 1509 1509 1509 1510 1510
1421 1422 1424 1426 1428 1429 1431 1433 1434 1436 1437 1439 1441 1443 1446 1449 1451 1452 1453 1455 1456 1458 1459 1461 1462 1464 1466 1468 1470 1473 1475 1478 1479 1481 1483 1484 1486 1487 1488 1490 1491 1492 1493 1494 1495 1496 1497 1498 1498 1499 1500 1501 1501 1502 1503 1503 1504 1504 1505 1505 1506 1506 1506 1507 1507 1508 1508 1508 1508
1420 1422 1424 1425 1427 1429 1431 1432 1434 1436 1438 1439 1442 1444 1447 1449 1451 1452 1453 1454 1456 1458 1459 1461 1462 1464 1466 1468 1470 1473 1476 1478 1479 1481 1482 1483 1485 1486 1488 1489 1490 1491 1492 1493 1494 1495 1495 1496 1496 1497 1498 1499 1500 1501 1501 1502 1502 1503 1503 1503 1504 1504 1505 1505 1505 1506 1506 1506 1506
1420 1422 1423 1425 1427 1428 1430 1432 1434 1436 1438 1440 1442 1445 1447 1449 1451 1452 1453 1454 1456 1457 1459 1461 1463 1464 1466 1468 1471 1474 1476 1478 1478 1480 1481 1483 1484 1486 1487 1488 1489 1490 1491 1492 1493 1493 1493 1494 1495 1496 1497 1498 1498 1499 1500 1500 1501 1501 1501 1502 1502 1503 1503 1503 1504 1504 1505 1505 1505
1420 1422 1423 1424 1426 1428 1430 1432 1434 1436 1438 1440 1443 1445 1447 1449 1450 1451 1452 1454 1455 1457 1459 1461 1463 1465 1467 1470 1473 1475 1476 1477 1478 1479 1481 1482 1483 1484 1486 1487 1488 1489 1490 1491 1491 1492 1492 1493 1494 1495 1495 1496 1497 1497 1498 1498 1499 1499 1500 1500 1500 1501 1501 1502 1502 1503 1503 1503 1503
1420 1421 1423 1424 1426 1428 1430 1432 1434 1437 1438 1441 1443 1445 1447 1448 1450 1451 1452 1453 1455 1457 1459 1461 1463 1465 1468 1471 1473 1474 1475 1476 1477 1479 1480 1481 1482 1483 1484 1485 1486 1487 1488 1489 1490 1491 1491 1492 1493 1493 1494 1495 1495 1496 1496 1497 1497 1497 1498 1498 1499 1499 1500 1500 1501 1501 1501 1502 1502
1420 1421 1423 1424 1426 1428 1430 1432 1435 1437 1439 1441 1443 1445 1447 1448 1450 1451 1453 1454 1456 1458 1460 1462 1464 1466 1469 1471 1473 1473 1474 1475 1477 1478 1479 1480 1480 1481 1483 1483 1484 1486 1487 1488 1488 1489 1490 1490 1491 1492 1492 1493 1493 1494 1494 1495 1495 1495 1496 1496 1497 1498 1498 1498 1499 1499 1500 1500 1500
1420 1421 1423 1424 1426 1428 1430 1432 1434 1437 1438 1441 1443 1445 1447 1448 1450 1452 1453 1455 1456 1458 1460 1463 1465 1467 1469 1470 1471 1472 1473 1474 1475 1476 1477 1478 1479 1480 1481 1482 1483 1484 1485 1486 1487 1488 1488 1489 1489 1490 1490 1491 1492 1492 1493 1493 1493 1494 1494 1494 1495 1495 1496 1497 1497 1498 1498 1498 1498
1420 1421 1423 1425 1427 1428 1430 1433 1434 1437 1438 1441 1443 1445 1447 1448 1450 1452 1453 1455 1457 1459 1461 1463 1465 1467 1468 1468 1469 1471 1472 1473 1474 1475 1476 1477 1478 1479 1480 1481 1482 1483 1484 1485 1485 1486 1487 1487 1488 1488 1488 1489 1489 1490 1491 1492 1492 1492 1493 1493 1493 1493 1494 1494 1495 1496 1496 1497 1497
1421 1422 1424 1426 1427 1429 1431 1433 1435 1437 1439 1441 1443 1445 1447 1448 1450 1452 1453 1455 1457 1459 1461 1463 1464 1465 1466 1467 1468 1469 1470 1471 1472 1474 1475 1476 1478 1478 1479 1480 1481 1482 1483 1483 1484 1484 1485 1486 1486 1487 1487 1487 1488 1488 1489 1489 1490 1491 1491 1492 1492 1492 1492 1493 1493 1494 1494 1495 1495
1422 1423 1424 1426 1428 1430 1432 1434 1436 1438 1440 1441 1443 1445 1446 1448 1450 1452 1453 1455 1457 1459 1460 1462 1463 1464 1465 1466 1467 1468 1469 1470 1471 1473 1474 1475 1476 1477 1478 1479 1480 1481 1481 1482 1483 1483 1483 1484 1484 1485 1485 1486 1486 1486 1487 1488 1488 1489 1489 1490 1490 1491 1491 1491 1492 1492 1492 1493 1493
1422 1423 1425 1427 1429 1431 1433 1434 1436 1438 1439 1441 1443 1444 1446 1448 1449 1451 1453 1454 1456 1458 1459 1460 1462 1463 1464 1465 1466 1467 1468 1469 1470 1472 1473 1474 1475 1476 1477 1478 1478 1479 1480 1480 1481 1482 1482 1483 1483 1484 1484 1484 1485 1485 1485 1486 1486 1487 1488 1488 1489 1489 1489 1490 1490 1490 1491 1491 1492
1422 1424 1425 1427 1429 1431 1432 1434 1436 1438 1439 1441 1442 1444 1445 1447 1449 1450 1452 1454 1455 1457 1458 1459 1460 1462 1463 1464 1465 1466 1467 1468 1469 1470 1471 1472 1473 1474 1475 1476 1477 1478 1478 1479 1480 1480 1481 1482 1482 1483 1483 1483 1484 1484 1484 1484 1485 1485 1486 1487 1487 1488 1488 1488 1488 1489 1489 1490 1490
1422 1424 1425 1427 1429 1430 1432 1434 1436 1437 1439 1440 1442 1443 1445 1447 1448 1450 1452 1453 1454 1456 1457 1458 1459 1461 1462 1463 1464 1465 1466 1467 1468 1469 1470 1471 1472 1473 1474 1475 1476 1476 1477 1478 1478 1479 1480 1481 1481 1482 1482 1483 1483 1483 1483 1483 1484 1484 1484 1485 1485 1486 1486 1486 1487 1487 1488 1488 1489
1422 1424 1425 1427 1429 1430 1432 1433 1435 1437 1438 1440 1442 1443 1445 1447 1448 1450 1451 1453 1454 1455 1456 1457 1458 1459 1461 1462 1463 1464 1465 1466 1467 1468 1468 1469 1470 1471 1472 1473 1474 1475 1476 1477 1478 1478 1479 1479 1480 1481 1481 1481 1482 1482 1482 1482 1482 1483 1483 1483 1484 1484 1484 1484 1485 1485 1486 1487 1487
1422 1424 1425 1427 1429 1430 1432 1433 1435 1437 1438 1440 1442 1443 1445 1447 1448 1449 1451 1452 1453 1454 1455 1456 1457 1458 1459 1461 1462 1463 1464 1465 1466 1467 1468 1468 1469 1470 1471 1472 1473 1474 1475 1476 1476 1477 1477 1478 1478 1479 1479 1479 1480 1480 1480 1480 1481 1481 1482 1482 1482 1483 1483 1483 1483 1484 1484 1484 1484
1422 1423 1425 1427 1428 1430 1432 1433 1435 1436 1438 1440 1441 1443 1444 1446 1448 1449 1450 1451 1452 1453 1454 1455 1456 1457 1458 1459 1460 1462 1463 1463 1464 1466 1467 1468 1468 1469 1470 1471 1472 1473 1473 1474 1474 1475 1475 1476 1477 1477 1478 1478 1478 1478 1479 1479 1479 1480 1480 1481 1481 1481 1482 1482 1482 1482 1482 1482 1481
1421 1423 1425 1426 1428 1430 1431 1433 1434 1436 1438 1439 1441 1442 1444 1445 1447 1448 1449 1450 1451 1452 1453 1454 1455 1456 1457 1458 1459 1460 1461 1462 1463 1465 1466 1467 1468 1468 1469 1470 1471 1471 1472 1472 1473 1473 1474 1474 1475 1476 1476 1476 1477 1477 1478 1478 1478 1479 1479 1479 1479 1480 1480 1480 1479 1479 1479 1478 1478
1421 1423 1424 1426 1428 1429 1431 1432 1434 1435 1437 1438 1440 1441 1443 1444 1445 1447 1448 1449 1450 1451 1452 1453 1454 1455 1456 1456 1457 1458 1460 1461 1462 1463 1465 1466 1467 1468 1468 1469 1469 1470 1470 1470 1471 1472 1472 1473 1473 1474 1475 1475 1476 1476 1476 1477 1477 1477 1477 1477 1477 1477 1477 1477 1476 1476 1476 1475 1475
1420 1422 1423 1425 1427 1428 1430 1431 1433 1434 1436 1438 1439 1440 1442 1443 1444 1445 1447 1448 1449 1450 1451 1452 1453 1453 1454 1455 1456 1457 1458 1460 1461 1463 1463 1465 1466 1467 1467 1468 1468 1467 1467 1468 1469 1469 1470 1471 1472 1472 1473 1474 1474 1475 1475 1475 1475 1475 1474 1474 1474 1473 1473 1473 1473 1473 1473 1472 1472
1420 1421 1423 1424 1426 1427 1429 1430 1432 1433 1435 1436 1438 1439 1440 1442 1443 1444 1445 1447 1448 1449 1450 1451 1452 1453 1453 1454 1455 1456 1458 1459 1460 1461 1462 1463 1464 1465 1465 1465 1464 1465 1465 1466 1466 1467 1468 1468 1469 1470 1471 1472 1472 1473 1473 1472 1472 1471 1471 1471 1471 1470 1470 1470 1470 1469 1469 1469 1469
1419 1420 1422 1423 1425 1426 1428 1429 1431 1432 1433 1435 1436 1438 1439 1440 1441 1443 1444 1446 1448 1449 1450 1451 1451 1452 1453 1454 1455 1456 1457 1458 1459 1460 1461 1462 1463 1463 1462 1461 1462 1463 1463 1463 1464 1464 1465 1466 1467 1468 1469 1469 1470 1469 1469 1468 1468 1468 1468 1468 1468 1468 1468 1468 1468 1467 1467 1467 1467
1418 1419 1421 1422 1424 1425 1427 1428 1429 1431 1432 1433 1435 1436 1438 1439 1440 1442 1443 1445 1447 1448 1449 1450 1450 1451 1452 1453 1453 1454 1456 1457 1458 1459 1460 1461 1461 1460 1459 1459 1460 1461 1461 1462 1462 1463 1463 1464 1465 1465 1466 1466 1466 1465 1465 1465 1465 1465 1465 1465 1465 1465 1465 1465 1465 1465 1465 1464 1464
1417 1418 1420 1421 1423 1424 1426 1427 1428 1430 1431 1433 1434 1435 1436 1438 1439 1441 1443 1444 1446 1447 1448 1449 1450 1451 1452 1453 1452 1453 1454 1456 1457 1457 1458 1458 1457 1456 1456 1457 1458 1458 1459 1460 1461 1462 1462 1463 1463 1463 1463 1462 1462 1462 1463 1463 1463 1463 1463 1463 1463 1463 1463 1463 1463 1463 1463 1462 1462
1416 1417 1419 1420 1422 1423 1425 1426 1428 1429 1430 1432 1433 1434 1436 1437 1438 1440 1441 1443 1444 1446 1447 1448 1448 1448 1448 1449 1449 1449 1449 1450 1451 1451 1451 1452 1452 1453 1453 1454 1456 1457 1458 1458 1459 1460 1460 1461 1460 1460 1460 1460 1460 1460 1460 1460 1461 1461 1461 1461 1462 1462 1461 1461 1461 1460 1460 1460 1459
1414 1416 1418 1419 1421 1422 1424 1425 1427 1428 1429 1431 1432 1433 1435 1436 1437 1438 1440 1442 1444 1444 1444 1443 1443 1444 1444 1445 1446 1447 1448 1449 1449 1449 1449 1450 1451 1452 1452 1453 1454 1455 1456 1457 1457 1458 1458 1458 1458 1458 1457 1457 1458 1458 1458 1458 1458 1459 1459 1459 1460 1460 1459 1459 1459 1458 1458 1458 1458
1413 1415 1416 1418 1420 1421 1423 1424 1426 1427 1428 1430 1431 1432 1434 1435 1436 1438 1439 1441 1442 1442 1440 1440 1442 1443 1444 1444 1445 1445 1446 1446 1447 1447 1447 1448 1448 1449 1450 1451 1452 1453 1453 1454 1455 1455 1455 1455 1455 1455 1455 1456 1456 1456 1456 1456 1456 1457 1457 1458 1458 1458 1458 1457 1457 1457 1457 1457 1457
1412 1414 1415 1417 1418 1420 1422 1423 1425 1426 1428 1429 1430 1432 1433 1434 1436 1437 1438 1439 1439 1438 1438 1439 1441 1442 1442 1443 1443 1443 1443 1443 1443 1444 1445 1445 1446 1446 1447 1448 1449 1450 1451 1451 1452 1453 1453 1453 1453 1454 1454 1454 1454 1454 1454 1454 1454 1454 1455 1455 1455 1455 1455 1455 1455 1455 1455 1456 1456
1411 1413 1414 1416 1417 1419 1421 1422 1424 1425 1427 1428 1429 1431 1433 1434 1435 1436 1436 1436 1435 1436 1437 1438 1439 1439 1440 1440 1441 1441 1441 1441 1441 1442 1443 1443 1443 1444 1445 1446 1446 1447 1448 1449 1450 1451 1452 1452 1452 1453 1453 1453 1453 1453 1452 1452 1452 1452 1453 1453 1453 1453 1453 1453 1453 1454 1454 1454 1454
1410 1411 1413 1414 1416 1418 1419 1421 1423 1424 1426 1427 1429 1430 1431 1432 1432 1433 1433 1433 1433 1434 1435 1436 1436 1437 1437 1438 1438 1439 1439 1440 1440 1441 1441 1442 1442 1443 1443 1444 1445 1446 1448 1449 1450 1451 1451 1452 1452 1452 1452 1452 1451 1451 1451 1451 1451 1451 1451 1451 1451 1452 1452 1452 1452 1453 1453 1453 1453
1408 1410 1411 1413 1414 1416 1418 1420 1422 1423 1425 1426 1427 1428 1428 1428 1429 1429 1430 1431 1431 1432 1432 1433 1433 1434 1435 1436 1436 1437 1438 1438 1439 1440 1441 1441 1442 1442 1443 1444 1445 1447 1448 1449 1450 1450 1450 1450 1451 1451 1451 1450 1450 1450 1449 1449 1450 1450 1450 1450 1450 1450 1451 1451 1451 1451 1452 1452 1452